Punta Gorda, FL

10:57 AM EDT on July 22, 2017 (GMT -0400)
Charlotte County

Weather History for KPGD - January, 2014

Change the Weather History Date:

Friday, January 17, 2014

  Actual Average Record
Temperature  
Mean Temperature 52 °F -  
Max Temperature 66 °F 71 °F 82 °F (1999)
Min Temperature 37 °F 47 °F 37 °F (2009)
Degree Days  
Heating Degree Days 14    
Growing Degree Days 2 (Base 50)    
Moisture  
Dew Point 37 °F    
Average Humidity 66    
Maximum Humidity 89    
Minimum Humidity 30    
Precipitation  
Precipitation 0.00 in - - ()
Sea Level Pressure  
Sea Level Pressure 30.20 in    
Wind  
Wind Speed 3 mph (NNE)    
Max Wind Speed 8 mph    
Max Gust Speed -    
Visibility 10 miles    
Events      
Averages and records for this station are not official NWS values.
T = Trace of Precipitation, MM = Missing Value Source: NWS Daily Summary

Daily Weather History Graph

Daily Weather History Graph

Search for Another Location

Airport or City:

Trip Planner

Search our weather history database for the weather conditions in past years. The results will help you decide how hot, cold, wet, or windy it might be!

Date:

Astronomy

Jan. 17, 2014 Rise Set
Actual Time 7:18 AM EST 5:58 PM EST
Civil Twilight 6:53 AM EST 6:23 PM EST
Nautical Twilight 6:24 AM EST 6:51 PM EST
Astronomical Twilight 5:56 AM EST 7:19 PM EST
Moon 7:30 PM EST (1/17) 7:57 AM EST (1/17)
Length of Visible Light 11h 29m
Length of Day
10h 40m
Full, 98% of the Moon is Illuminated
Jan 17
Full
Jan 24
Last Quarter
Jan 30
New
Feb 6
First Quarter
Feb 14
Full

Hourly Weather History & Observations

Time (EST) Temp. Windchill Dew Point Humidity Pressure Visibility Wind Dir Wind Speed Gust Speed Precip Events Conditions
12:53 AM 39.0 °F 36.8 °F 35.1 °F 86% 30.19 in 10.0 mi NE 3.5 mph - N/A   Clear
1:53 AM 39.0 °F - 35.1 °F 86% 30.19 in 10.0 mi Calm Calm - N/A   Clear
2:53 AM 37.0 °F 33.3 °F 34.0 °F 89% 30.18 in 10.0 mi East 4.6 mph - N/A   Clear
3:53 AM 37.9 °F 35.5 °F 34.0 °F 86% 30.18 in 10.0 mi East 3.5 mph - N/A   Clear
4:53 AM 37.0 °F 33.3 °F 33.1 °F 86% 30.18 in 10.0 mi East 4.6 mph - N/A   Clear
5:53 AM 37.0 °F 34.5 °F 33.1 °F 86% 30.19 in 10.0 mi East 3.5 mph - N/A   Clear
6:53 AM 37.9 °F - 33.1 °F 83% 30.21 in 10.0 mi Calm Calm - N/A   Clear
7:53 AM 37.9 °F - 35.1 °F 89% 30.22 in 10.0 mi Calm Calm - N/A   Clear
8:53 AM 45.0 °F 43.5 °F 37.0 °F 74% 30.24 in 10.0 mi East 3.5 mph - N/A   Clear
9:53 AM 52.0 °F - 37.0 °F 57% 30.26 in 10.0 mi East 5.8 mph - N/A   Clear
10:53 AM 57.0 °F - 36.0 °F 45% 30.26 in 10.0 mi NNE 6.9 mph - N/A   Clear
11:53 AM 60.1 °F - 34.0 °F 38% 30.23 in 10.0 mi NNW 6.9 mph - N/A   Clear
12:53 PM 62.1 °F - 30.0 °F 30% 30.19 in 10.0 mi NNE 8.1 mph - N/A   Clear
1:53 PM 64.9 °F - 33.1 °F 31% 30.17 in 10.0 mi North 6.9 mph - N/A   Clear
2:53 PM 64.9 °F - 34.0 °F 32% 30.15 in 10.0 mi NW 4.6 mph - N/A   Clear
3:53 PM 66.0 °F - 34.0 °F 30% 30.16 in 10.0 mi NNW 5.8 mph - N/A   Clear
4:53 PM 64.0 °F - 35.1 °F 34% 30.16 in 10.0 mi Calm Calm - N/A   Clear
5:53 PM 59.0 °F - 45.0 °F 60% 30.17 in 10.0 mi SW 4.6 mph - N/A   Clear
6:53 PM 57.0 °F - 46.0 °F 67% 30.17 in 10.0 mi WNW 6.9 mph - N/A   Clear
7:53 PM 57.0 °F - 43.0 °F 59% 30.19 in 10.0 mi WNW 3.5 mph - N/A   Clear
8:53 PM 53.1 °F - 45.0 °F 74% 30.20 in 10.0 mi Calm Calm - N/A   Clear
9:53 PM 50.0 °F - 45.0 °F 83% 30.21 in 10.0 mi Calm Calm - N/A   Clear
10:53 PM 48.9 °F - 44.1 °F 83% 30.22 in 10.0 mi Calm Calm - N/A   Clear
11:53 PM 46.9 °F - 43.0 °F 86% 30.20 in 10.0 mi South 3.5 mph - N/A   Clear